LOCATION_NAME,SAMPLE COLLECTION TIME,DOSE EQUIVALENT RATE (nSv/h),GAMMA COUNT RATE R02 (CPM),GAMMA COUNT RATE R03 (CPM),GAMMA COUNT RATE R04 (CPM),GAMMA COUNT RATE R05 (CPM),GAMMA COUNT RATE R06 (CPM),GAMMA COUNT RATE R07 (CPM),GAMMA COUNT RATE R08 (CPM),GAMMA COUNT RATE R09 (CPM),STATUS
CO: COLORADO SPRINGS,01/06/2014 15:54:00,,5794.00,2897.00,753.00,389.00,243.00,289.00,190.00,73.00,APPROVED
CO: COLORADO SPRINGS,01/06/2014 16:54:00,,5162.00,2874.00,750.00,391.00,240.00,283.00,187.00,70.00,APPROVED
CO: COLORADO SPRINGS,01/06/2014 17:54:00,,4988.00,2805.00,736.00,376.00,235.00,276.00,187.00,71.00,APPROVED
CO: COLORADO SPRINGS,01/06/2014 18:54:00,,4852.00,2711.00,721.00,370.00,234.00,275.00,184.00,69.00,APPROVED
CO: COLORADO SPRINGS,01/06/2014 19:55:00,,4759.00,2649.00,728.00,365.00,235.00,272.00,180.00,70.00,APPROVED
CO: COLORADO SPRINGS,01/06/2014 20:55:00,,4710.00,2647.00,710.00,360.00,231.00,272.00,180.00,69.00,APPROVED
CO: COLORADO SPRINGS,01/06/2014 21:55:00,,4749.00,2676.00,722.00,365.00,238.00,276.00,183.00,70.00,APPROVED
CO: COLORADO SPRINGS,01/06/2014 22:55:00,,4949.00,2788.00,741.00,383.00,239.00,279.00,187.00,73.00,APPROVED
CO: COLORADO SPRINGS,01/06/2014 23:55:00,,5031.00,2824.00,742.00,387.00,242.00,282.00,188.00,71.00,APPROVED
CO: COLORADO SPRINGS,01/07/2014 00:56:00,,5058.00,2835.00,751.00,385.00,242.00,282.00,189.00,70.00,APPROVED
CO: COLORADO SPRINGS,01/07/2014 01:56:00,,5123.00,2909.00,751.00,391.00,243.00,283.00,189.00,72.00,APPROVED
CO: COLORADO SPRINGS,01/07/2014 02:56:00,,5154.00,2901.00,756.00,396.00,242.00,287.00,188.00,73.00,APPROVED
CO: COLORADO SPRINGS,01/07/2014 03:56:00,,5190.00,2927.00,764.00,399.00,245.00,291.00,187.00,73.00,APPROVED
CO: COLORADO SPRINGS,01/07/2014 04:56:00,,5161.00,2920.00,763.00,394.00,242.00,290.00,192.00,73.00,APPROVED
CO: COLORADO SPRINGS,01/07/2014 05:57:00,,5090.00,2874.00,752.00,388.00,243.00,282.00,187.00,73.00,APPROVED
CO: COLORADO SPRINGS,01/07/2014 06:57:00,,4929.00,2770.00,736.00,374.00,235.00,281.00,185.00,69.00,APPROVED
CO: COLORADO SPRINGS,01/07/2014 07:57:00,,4905.00,2748.00,722.00,373.00,234.00,278.00,184.00,71.00,APPROVED
CO: COLORADO SPRINGS,01/07/2014 08:57:00,,4900.00,2742.00,724.00,370.00,239.00,274.00,185.00,69.00,APPROVED
CO: COLORADO SPRINGS,01/07/2014 09:57:00,,4882.00,2718.00,721.00,370.00,239.00,273.00,183.00,70.00,APPROVED
CO: COLORADO SPRINGS,01/07/2014 10:58:00,,4873.00,2730.00,730.00,372.00,234.00,274.00,184.00,68.00,APPROVED
CO: COLORADO SPRINGS,01/07/2014 11:58:00,,4874.00,2730.00,723.00,370.00,237.00,272.00,182.00,70.00,APPROVED
CO: COLORADO SPRINGS,01/07/2014 12:58:00,,4881.00,2722.00,717.00,364.00,234.00,272.00,184.00,69.00,APPROVED
CO: COLORADO SPRINGS,01/07/2014 13:58:00,,4897.00,2740.00,723.00,366.00,237.00,273.00,183.00,71.00,APPROVED
CO: COLORADO SPRINGS,01/07/2014 14:58:00,,4895.00,2748.00,729.00,376.00,237.00,278.00,183.00,73.00,APPROVED
CO: COLORADO SPRINGS,01/07/2014 15:59:00,,4888.00,2740.00,729.00,374.00,234.00,281.00,183.00,70.00,APPROVED
CO: COLORADO SPRINGS,01/07/2014 16:59:00,,4847.00,2719.00,719.00,376.00,235.00,274.00,183.00,69.00,APPROVED
CO: COLORADO SPRINGS,01/07/2014 17:59:00,,4761.00,2677.00,715.00,367.00,235.00,270.00,182.00,70.00,APPROVED
CO: COLORADO SPRINGS,01/07/2014 18:59:00,,4699.00,2620.00,712.00,362.00,235.00,269.00,182.00,68.00,APPROVED
CO: COLORADO SPRINGS,01/07/2014 19:59:00,,4688.00,2622.00,714.00,366.00,234.00,271.00,180.00,69.00,APPROVED
CO: COLORADO SPRINGS,01/07/2014 20:59:00,,4679.00,2632.00,713.00,367.00,240.00,275.00,184.00,70.00,APPROVED
CO: COLORADO SPRINGS,01/07/2014 22:00:00,,4600.00,2582.00,717.00,362.00,236.00,272.00,183.00,70.00,APPROVED
CO: COLORADO SPRINGS,01/07/2014 23:00:00,,4646.00,2621.00,716.00,368.00,236.00,270.00,186.00,70.00,APPROVED
CO: COLORADO SPRINGS,01/08/2014 00:00:00,,4718.00,2654.00,723.00,369.00,234.00,272.00,181.00,69.00,APPROVED
CO: COLORADO SPRINGS,01/08/2014 01:00:00,,4836.00,2711.00,727.00,372.00,238.00,275.00,181.00,71.00,APPROVED
CO: COLORADO SPRINGS,01/08/2014 02:00:00,,4936.00,2761.00,738.00,374.00,246.00,278.00,188.00,71.00,APPROVED
CO: COLORADO SPRINGS,01/08/2014 03:01:00,,4925.00,2760.00,735.00,376.00,237.00,278.00,187.00,72.00,APPROVED
CO: COLORADO SPRINGS,01/08/2014 04:01:00,,4875.00,2738.00,732.00,375.00,241.00,276.00,182.00,72.00,APPROVED
CO: COLORADO SPRINGS,01/08/2014 05:01:00,,4798.00,2681.00,713.00,369.00,233.00,273.00,183.00,71.00,APPROVED
CO: COLORADO SPRINGS,01/08/2014 06:01:00,,4839.00,2701.00,723.00,369.00,240.00,279.00,183.00,71.00,APPROVED
CO: COLORADO SPRINGS,01/08/2014 07:01:00,,4905.00,2746.00,733.00,377.00,239.00,276.00,185.00,70.00,APPROVED
CO: COLORADO SPRINGS,01/08/2014 08:02:00,,4989.00,2796.00,743.00,382.00,242.00,278.00,187.00,71.00,APPROVED
CO: COLORADO SPRINGS,01/08/2014 09:02:00,,5011.00,2803.00,737.00,384.00,241.00,283.00,189.00,72.00,APPROVED
CO: COLORADO SPRINGS,01/08/2014 10:02:00,,5056.00,2835.00,751.00,386.00,244.00,282.00,190.00,73.00,APPROVED
CO: COLORADO SPRINGS,01/08/2014 11:02:00,,5050.00,2836.00,750.00,386.00,241.00,282.00,187.00,71.00,APPROVED
CO: COLORADO SPRINGS,01/08/2014 12:02:00,,5073.00,2839.00,746.00,390.00,242.00,285.00,192.00,72.00,APPROVED
CO: COLORADO SPRINGS,01/08/2014 13:03:00,,5086.00,2861.00,749.00,387.00,245.00,281.00,190.00,72.00,APPROVED
CO: COLORADO SPRINGS,01/08/2014 14:03:00,,5154.00,2886.00,750.00,391.00,242.00,287.00,188.00,73.00,APPROVED
CO: COLORADO SPRINGS,01/08/2014 15:03:00,,5243.00,2954.00,771.00,397.00,247.00,289.00,191.00,72.00,APPROVED
CO: COLORADO SPRINGS,01/08/2014 16:03:00,,5171.00,2917.00,763.00,393.00,245.00,288.00,190.00,73.00,APPROVED
CO: COLORADO SPRINGS,01/08/2014 17:03:00,,4907.00,2755.00,737.00,382.00,241.00,282.00,186.00,72.00,APPROVED
CO: COLORADO SPRINGS,01/08/2014 18:04:00,,4726.00,2660.00,723.00,369.00,238.00,276.00,184.00,69.00,APPROVED
CO: COLORADO SPRINGS,01/08/2014 19:04:00,,4782.00,2706.00,721.00,375.00,236.00,274.00,183.00,69.00,APPROVED
CO: COLORADO SPRINGS,01/08/2014 20:04:00,,4879.00,2739.00,742.00,380.00,245.00,279.00,181.00,71.00,APPROVED
CO: COLORADO SPRINGS,01/08/2014 21:04:00,,5011.00,2819.00,743.00,386.00,244.00,280.00,187.00,72.00,APPROVED
CO: COLORADO SPRINGS,01/08/2014 22:04:00,,5030.00,2828.00,743.00,382.00,243.00,284.00,190.00,72.00,APPROVED
CO: COLORADO SPRINGS,01/08/2014 23:05:00,,4954.00,2781.00,747.00,380.00,241.00,278.00,187.00,71.00,APPROVED
CO: COLORADO SPRINGS,01/09/2014 00:05:00,,4960.00,2773.00,740.00,381.00,243.00,277.00,186.00,71.00,APPROVED
CO: COLORADO SPRINGS,01/09/2014 01:05:00,,4987.00,2778.00,736.00,376.00,241.00,283.00,188.00,71.00,APPROVED
CO: COLORADO SPRINGS,01/09/2014 02:05:00,,4998.00,2795.00,740.00,378.00,242.00,278.00,187.00,72.00,APPROVED
CO: COLORADO SPRINGS,01/09/2014 03:05:00,,5014.00,2820.00,741.00,381.00,244.00,279.00,186.00,72.00,APPROVED
CO: COLORADO SPRINGS,01/09/2014 04:06:00,,5038.00,2835.00,754.00,382.00,246.00,285.00,188.00,71.00,APPROVED
CO: COLORADO SPRINGS,01/09/2014 05:06:00,,5047.00,2842.00,751.00,383.00,244.00,279.00,188.00,73.00,APPROVED
CO: COLORADO SPRINGS,01/09/2014 06:06:00,,5170.00,2898.00,760.00,392.00,248.00,287.00,188.00,72.00,APPROVED
CO: COLORADO SPRINGS,01/09/2014 07:06:00,,5314.00,3000.00,776.00,400.00,253.00,291.00,192.00,74.00,APPROVED
CO: COLORADO SPRINGS,01/09/2014 08:06:00,,5346.00,3013.00,788.00,410.00,249.00,296.00,193.00,76.00,APPROVED
CO: COLORADO SPRINGS,01/09/2014 09:07:00,,5336.00,3008.00,783.00,405.00,252.00,298.00,198.00,73.00,APPROVED
CO: COLORADO SPRINGS,01/09/2014 10:07:00,,5372.00,3043.00,791.00,409.00,253.00,298.00,192.00,73.00,APPROVED
CO: COLORADO SPRINGS,01/09/2014 11:07:00,,5317.00,3024.00,789.00,409.00,252.00,297.00,191.00,76.00,APPROVED
CO: COLORADO SPRINGS,01/09/2014 12:07:00,,5249.00,2973.00,771.00,403.00,246.00,294.00,194.00,76.00,APPROVED
CO: COLORADO SPRINGS,01/09/2014 13:07:00,,5204.00,2952.00,768.00,398.00,252.00,293.00,193.00,73.00,APPROVED
CO: COLORADO SPRINGS,01/09/2014 14:08:00,,5255.00,3006.00,774.00,406.00,247.00,294.00,194.00,74.00,APPROVED
CO: COLORADO SPRINGS,01/09/2014 15:08:00,,5222.00,2954.00,766.00,398.00,249.00,296.00,191.00,70.00,APPROVED
CO: COLORADO SPRINGS,01/09/2014 16:08:00,,5158.00,2920.00,759.00,398.00,249.00,293.00,190.00,73.00,APPROVED
CO: COLORADO SPRINGS,01/09/2014 17:08:00,,4996.00,2825.00,750.00,388.00,245.00,285.00,189.00,72.00,APPROVED
CO: COLORADO SPRINGS,01/09/2014 18:08:00,,4632.00,2623.00,726.00,371.00,241.00,275.00,180.00,72.00,APPROVED
CO: COLORADO SPRINGS,01/09/2014 19:09:00,,4361.00,2473.00,702.00,353.00,235.00,272.00,179.00,69.00,APPROVED
CO: COLORADO SPRINGS,01/09/2014 20:09:00,,4275.00,2421.00,693.00,354.00,232.00,270.00,182.00,69.00,APPROVED
CO: COLORADO SPRINGS,01/09/2014 21:09:00,,4400.00,2488.00,708.00,359.00,237.00,273.00,182.00,69.00,APPROVED
CO: COLORADO SPRINGS,01/09/2014 22:09:00,,4583.00,2602.00,725.00,369.00,244.00,277.00,184.00,72.00,APPROVED
CO: COLORADO SPRINGS,01/09/2014 23:09:00,,4449.00,2527.00,712.00,359.00,238.00,275.00,182.00,70.00,APPROVED
CO: COLORADO SPRINGS,01/10/2014 00:10:00,,4510.00,2543.00,712.00,365.00,239.00,276.00,185.00,72.00,APPROVED
CO: COLORADO SPRINGS,01/10/2014 01:10:00,,4798.00,2693.00,725.00,372.00,240.00,283.00,185.00,72.00,APPROVED
CO: COLORADO SPRINGS,01/10/2014 02:10:00,,4930.00,2763.00,743.00,378.00,243.00,280.00,186.00,72.00,APPROVED
CO: COLORADO SPRINGS,01/10/2014 03:10:00,,4956.00,2782.00,741.00,378.00,238.00,288.00,189.00,71.00,APPROVED
CO: COLORADO SPRINGS,01/10/2014 04:10:00,,4955.00,2782.00,742.00,377.00,243.00,278.00,186.00,71.00,APPROVED
CO: COLORADO SPRINGS,01/10/2014 05:11:00,,4955.00,2784.00,740.00,380.00,243.00,284.00,188.00,70.00,APPROVED
CO: COLORADO SPRINGS,01/10/2014 06:11:00,,4987.00,2804.00,739.00,383.00,242.00,282.00,189.00,72.00,APPROVED
CO: COLORADO SPRINGS,01/10/2014 07:11:00,,5017.00,2823.00,742.00,387.00,240.00,284.00,189.00,74.00,APPROVED
CO: COLORADO SPRINGS,01/10/2014 08:11:00,,5011.00,2815.00,744.00,382.00,245.00,282.00,188.00,71.00,APPROVED
CO: COLORADO SPRINGS,01/10/2014 09:11:00,,4998.00,2809.00,744.00,384.00,245.00,282.00,188.00,71.00,APPROVED
CO: COLORADO SPRINGS,01/10/2014 10:12:00,,4944.00,2776.00,738.00,382.00,243.00,287.00,190.00,73.00,APPROVED
CO: COLORADO SPRINGS,01/10/2014 11:12:00,,4912.00,2766.00,731.00,377.00,243.00,280.00,188.00,70.00,APPROVED
CO: COLORADO SPRINGS,01/10/2014 12:12:00,,4896.00,2763.00,737.00,377.00,239.00,274.00,186.00,70.00,APPROVED
CO: COLORADO SPRINGS,01/10/2014 13:12:00,,4908.00,2759.00,734.00,376.00,241.00,282.00,189.00,71.00,APPROVED
CO: COLORADO SPRINGS,01/10/2014 14:12:00,,4925.00,2765.00,738.00,380.00,239.00,283.00,188.00,71.00,APPROVED
CO: COLORADO SPRINGS,01/10/2014 15:12:00,,4891.00,2750.00,728.00,381.00,240.00,279.00,187.00,70.00,APPROVED
CO: COLORADO SPRINGS,01/10/2014 16:13:00,,4844.00,2731.00,727.00,372.00,239.00,278.00,186.00,73.00,APPROVED
CO: COLORADO SPRINGS,01/10/2014 17:13:00,,4805.00,2697.00,727.00,372.00,238.00,276.00,187.00,69.00,APPROVED
CO: COLORADO SPRINGS,01/10/2014 18:13:00,,4750.00,2667.00,723.00,369.00,237.00,275.00,187.00,68.00,APPROVED
CO: COLORADO SPRINGS,01/10/2014 19:13:00,,4736.00,2659.00,724.00,365.00,237.00,273.00,187.00,71.00,APPROVED
CO: COLORADO SPRINGS,01/10/2014 20:13:00,,4672.00,2634.00,722.00,370.00,239.00,278.00,187.00,70.00,APPROVED
CO: COLORADO SPRINGS,01/10/2014 21:14:00,,4685.00,2631.00,719.00,366.00,238.00,277.00,186.00,71.00,APPROVED
CO: COLORADO SPRINGS,01/10/2014 22:14:00,,4675.00,2630.00,723.00,373.00,244.00,275.00,186.00,71.00,APPROVED
CO: COLORADO SPRINGS,01/10/2014 23:14:00,,4682.00,2645.00,723.00,368.00,238.00,276.00,185.00,72.00,APPROVED
CO: COLORADO SPRINGS,01/11/2014 00:14:00,,4782.00,2700.00,726.00,369.00,239.00,277.00,187.00,72.00,APPROVED
CO: COLORADO SPRINGS,01/11/2014 01:14:00,,4866.00,2726.00,729.00,369.00,237.00,281.00,186.00,67.00,APPROVED
CO: COLORADO SPRINGS,01/11/2014 02:15:00,,4869.00,2734.00,730.00,370.00,240.00,277.00,188.00,72.00,APPROVED
CO: COLORADO SPRINGS,01/11/2014 03:15:00,,4877.00,2750.00,735.00,373.00,240.00,279.00,187.00,73.00,APPROVED
CO: COLORADO SPRINGS,01/11/2014 04:15:00,,4901.00,2746.00,730.00,377.00,238.00,278.00,187.00,70.00,APPROVED
CO: COLORADO SPRINGS,01/11/2014 05:15:00,,4893.00,2742.00,731.00,374.00,237.00,279.00,186.00,70.00,APPROVED
CO: COLORADO SPRINGS,01/11/2014 07:16:00,,4870.00,2722.00,735.00,374.00,239.00,274.00,186.00,70.00,APPROVED
CO: COLORADO SPRINGS,01/11/2014 08:16:00,,4872.00,2728.00,729.00,373.00,242.00,274.00,187.00,71.00,APPROVED
CO: COLORADO SPRINGS,01/11/2014 09:16:00,,4839.00,2715.00,725.00,368.00,238.00,279.00,188.00,71.00,APPROVED
CO: COLORADO SPRINGS,01/11/2014 10:16:00,,4779.00,2687.00,727.00,371.00,240.00,277.00,188.00,71.00,APPROVED
CO: COLORADO SPRINGS,01/11/2014 11:16:00,,4886.00,2729.00,739.00,381.00,243.00,283.00,186.00,71.00,APPROVED
CO: COLORADO SPRINGS,01/11/2014 12:17:00,,4926.00,2831.00,751.00,389.00,240.00,297.00,195.00,72.00,APPROVED
CO: COLORADO SPRINGS,01/11/2014 13:17:00,,4887.00,2855.00,766.00,397.00,241.00,308.00,200.00,73.00,APPROVED
CO: COLORADO SPRINGS,01/11/2014 14:17:00,,4884.00,2894.00,770.00,405.00,244.00,312.00,203.00,73.00,APPROVED
CO: COLORADO SPRINGS,01/11/2014 15:17:00,,4864.00,2882.00,767.00,400.00,242.00,314.00,202.00,73.00,APPROVED
CO: COLORADO SPRINGS,01/11/2014 16:17:00,,4735.00,2827.00,767.00,396.00,242.00,317.00,205.00,74.00,APPROVED
CO: COLORADO SPRINGS,01/11/2014 17:18:00,,4504.00,2728.00,751.00,400.00,238.00,313.00,203.00,77.00,APPROVED
CO: COLORADO SPRINGS,01/11/2014 18:18:00,,4343.00,2648.00,738.00,389.00,240.00,317.00,208.00,75.00,APPROVED
CO: COLORADO SPRINGS,01/11/2014 19:18:00,,4325.00,2634.00,742.00,387.00,238.00,314.00,209.00,75.00,APPROVED
CO: COLORADO SPRINGS,01/11/2014 20:18:00,,4240.00,2607.00,733.00,393.00,236.00,317.00,204.00,75.00,APPROVED
CO: COLORADO SPRINGS,01/12/2014 02:10:00,,4765.00,2706.00,739.00,377.00,243.00,281.00,189.00,72.00,APPROVED
CO: COLORADO SPRINGS,01/12/2014 03:10:00,,4869.00,2755.00,739.00,386.00,244.00,283.00,188.00,71.00,APPROVED
CO: COLORADO SPRINGS,01/12/2014 04:10:00,,4907.00,2766.00,745.00,383.00,249.00,282.00,192.00,70.00,APPROVED
CO: COLORADO SPRINGS,01/12/2014 05:10:00,,4876.00,2736.00,736.00,376.00,242.00,279.00,186.00,70.00,APPROVED
CO: COLORADO SPRINGS,01/12/2014 06:11:00,,4855.00,2733.00,733.00,375.00,240.00,276.00,188.00,72.00,APPROVED
CO: COLORADO SPRINGS,01/12/2014 07:11:00,,4846.00,2720.00,732.00,379.00,241.00,277.00,186.00,69.00,APPROVED
CO: COLORADO SPRINGS,01/12/2014 08:11:00,,4860.00,2730.00,730.00,379.00,241.00,281.00,189.00,70.00,APPROVED
CO: COLORADO SPRINGS,01/12/2014 09:11:00,,4898.00,2768.00,736.00,373.00,242.00,279.00,187.00,72.00,APPROVED
CO: COLORADO SPRINGS,01/12/2014 10:11:00,,4934.00,2770.00,738.00,381.00,243.00,281.00,193.00,70.00,APPROVED
CO: COLORADO SPRINGS,01/12/2014 11:12:00,,4909.00,2763.00,744.00,382.00,244.00,280.00,189.00,72.00,APPROVED
CO: COLORADO SPRINGS,01/12/2014 12:12:00,,4899.00,2749.00,734.00,377.00,242.00,279.00,189.00,72.00,APPROVED
CO: COLORADO SPRINGS,01/12/2014 13:12:00,,4880.00,2727.00,738.00,376.00,242.00,280.00,186.00,72.00,APPROVED
CO: COLORADO SPRINGS,01/12/2014 14:12:00,,4858.00,2729.00,737.00,376.00,243.00,281.00,186.00,70.00,APPROVED
CO: COLORADO SPRINGS,01/12/2014 15:12:00,,4838.00,2705.00,726.00,373.00,242.00,279.00,187.00,70.00,APPROVED
CO: COLORADO SPRINGS,01/12/2014 16:13:00,,4717.00,2659.00,724.00,371.00,239.00,274.00,187.00,71.00,APPROVED
CO: COLORADO SPRINGS,01/12/2014 17:13:00,,4543.00,2573.00,716.00,364.00,239.00,276.00,184.00,70.00,APPROVED
CO: COLORADO SPRINGS,01/12/2014 18:13:00,,4416.00,2513.00,712.00,358.00,240.00,276.00,188.00,71.00,APPROVED
CO: COLORADO SPRINGS,01/12/2014 19:13:00,,4675.00,2686.00,751.00,390.00,244.00,290.00,192.00,72.00,APPROVED
CO: COLORADO SPRINGS,01/12/2014 20:13:00,,4658.00,2659.00,733.00,377.00,241.00,282.00,189.00,72.00,APPROVED
CO: COLORADO SPRINGS,01/12/2014 21:14:00,,4663.00,2632.00,726.00,371.00,239.00,278.00,185.00,70.00,APPROVED
CO: COLORADO SPRINGS,01/12/2014 22:14:00,,4606.00,2595.00,717.00,366.00,238.00,272.00,187.00,71.00,APPROVED
CO: COLORADO SPRINGS,01/12/2014 23:14:00,,4620.00,2615.00,718.00,367.00,237.00,273.00,185.00,72.00,APPROVED
CO: COLORADO SPRINGS,01/13/2014 00:14:00,,4735.00,2680.00,720.00,367.00,238.00,277.00,187.00,70.00,APPROVED
CO: COLORADO SPRINGS,01/13/2014 01:14:00,,4832.00,2712.00,730.00,370.00,239.00,275.00,184.00,71.00,APPROVED
CO: COLORADO SPRINGS,01/13/2014 02:15:00,,4860.00,2734.00,730.00,372.00,239.00,275.00,189.00,71.00,APPROVED
CO: COLORADO SPRINGS,01/13/2014 03:15:00,,4860.00,2725.00,727.00,369.00,240.00,276.00,184.00,70.00,APPROVED
CO: COLORADO SPRINGS,01/13/2014 04:15:00,,4875.00,2731.00,727.00,370.00,236.00,281.00,188.00,70.00,APPROVED
CO: COLORADO SPRINGS,01/13/2014 05:15:00,,4887.00,2725.00,730.00,376.00,243.00,279.00,190.00,71.00,APPROVED
CO: COLORADO SPRINGS,01/13/2014 06:15:00,,4885.00,2742.00,730.00,370.00,238.00,276.00,188.00,69.00,APPROVED
CO: COLORADO SPRINGS,01/13/2014 07:16:00,,4881.00,2740.00,731.00,375.00,242.00,277.00,186.00,71.00,APPROVED
CO: COLORADO SPRINGS,01/13/2014 08:16:00,,4899.00,2748.00,729.00,374.00,238.00,277.00,188.00,71.00,APPROVED
CO: COLORADO SPRINGS,01/13/2014 09:16:00,,4906.00,2747.00,732.00,376.00,240.00,278.00,188.00,72.00,APPROVED
CO: COLORADO SPRINGS,01/13/2014 10:16:00,,4911.00,2767.00,740.00,377.00,242.00,283.00,188.00,70.00,APPROVED
CO: COLORADO SPRINGS,01/13/2014 11:16:00,,4913.00,2765.00,730.00,373.00,243.00,277.00,189.00,71.00,APPROVED
CO: COLORADO SPRINGS,01/13/2014 12:17:00,,4897.00,2749.00,736.00,377.00,240.00,279.00,188.00,70.00,APPROVED
CO: COLORADO SPRINGS,01/13/2014 13:17:00,,4889.00,2740.00,735.00,373.00,242.00,277.00,189.00,71.00,APPROVED
CO: COLORADO SPRINGS,01/13/2014 14:17:00,,4870.00,2737.00,727.00,373.00,244.00,279.00,187.00,70.00,APPROVED
CO: COLORADO SPRINGS,01/13/2014 15:17:00,,4862.00,2721.00,731.00,373.00,239.00,278.00,189.00,74.00,APPROVED
CO: COLORADO SPRINGS,01/13/2014 16:17:00,,4817.00,2700.00,730.00,374.00,242.00,281.00,186.00,70.00,APPROVED
CO: COLORADO SPRINGS,01/13/2014 17:18:00,,4748.00,2668.00,723.00,371.00,238.00,276.00,185.00,71.00,APPROVED
CO: COLORADO SPRINGS,01/13/2014 18:18:00,,4697.00,2646.00,724.00,372.00,238.00,275.00,186.00,69.00,APPROVED
CO: COLORADO SPRINGS,01/13/2014 19:18:00,,4650.00,2624.00,727.00,369.00,241.00,275.00,189.00,70.00,APPROVED
CO: COLORADO SPRINGS,01/13/2014 20:18:00,,4532.00,2563.00,718.00,368.00,241.00,277.00,186.00,71.00,APPROVED
CO: COLORADO SPRINGS,01/13/2014 21:18:00,,4474.00,2531.00,708.00,363.00,237.00,270.00,188.00,71.00,APPROVED
CO: COLORADO SPRINGS,01/13/2014 22:19:00,,4410.00,2496.00,706.00,351.00,236.00,272.00,181.00,67.00,APPROVED
CO: COLORADO SPRINGS,01/13/2014 23:19:00,,4385.00,2484.00,701.00,358.00,238.00,269.00,184.00,69.00,APPROVED
CO: COLORADO SPRINGS,01/14/2014 00:19:00,,4545.00,2558.00,711.00,367.00,237.00,277.00,185.00,71.00,APPROVED
CO: COLORADO SPRINGS,01/14/2014 01:19:00,,4674.00,2636.00,715.00,367.00,237.00,273.00,188.00,70.00,APPROVED
CO: COLORADO SPRINGS,01/14/2014 02:19:00,,4809.00,2696.00,731.00,373.00,242.00,281.00,185.00,70.00,APPROVED
CO: COLORADO SPRINGS,01/14/2014 03:20:00,,4813.00,2693.00,727.00,374.00,242.00,276.00,187.00,70.00,APPROVED
CO: COLORADO SPRINGS,01/14/2014 04:20:00,,4783.00,2677.00,723.00,371.00,241.00,275.00,184.00,68.00,APPROVED
CO: COLORADO SPRINGS,01/14/2014 05:20:00,,4807.00,2683.00,720.00,366.00,238.00,274.00,188.00,69.00,APPROVED
CO: COLORADO SPRINGS,01/14/2014 06:20:00,,4773.00,2673.00,724.00,371.00,242.00,275.00,187.00,68.00,APPROVED
CO: COLORADO SPRINGS,01/14/2014 07:20:00,,4776.00,2677.00,721.00,370.00,240.00,274.00,188.00,72.00,APPROVED
CO: COLORADO SPRINGS,01/14/2014 08:21:00,,4842.00,2713.00,731.00,378.00,241.00,276.00,190.00,71.00,APPROVED
CO: COLORADO SPRINGS,01/14/2014 09:21:00,,4916.00,2773.00,736.00,385.00,241.00,284.00,188.00,71.00,APPROVED
CO: COLORADO SPRINGS,01/14/2014 10:21:00,,4977.00,2816.00,746.00,382.00,241.00,284.00,191.00,71.00,APPROVED
CO: COLORADO SPRINGS,01/14/2014 11:21:00,,5019.00,2840.00,749.00,389.00,243.00,289.00,195.00,70.00,APPROVED
CO: COLORADO SPRINGS,01/14/2014 12:21:00,,4986.00,2805.00,742.00,379.00,246.00,284.00,193.00,72.00,APPROVED
CO: COLORADO SPRINGS,01/14/2014 13:22:00,,4966.00,2805.00,751.00,381.00,243.00,283.00,188.00,70.00,APPROVED
CO: COLORADO SPRINGS,01/14/2014 14:22:00,,4953.00,2793.00,741.00,378.00,241.00,281.00,189.00,70.00,APPROVED
CO: COLORADO SPRINGS,01/14/2014 15:22:00,,4926.00,2773.00,732.00,379.00,240.00,281.00,187.00,72.00,APPROVED
CO: COLORADO SPRINGS,01/14/2014 16:22:00,,4907.00,2767.00,732.00,374.00,240.00,278.00,186.00,72.00,APPROVED
CO: COLORADO SPRINGS,01/14/2014 17:22:00,,4858.00,2729.00,726.00,375.00,239.00,282.00,187.00,70.00,APPROVED
CO: COLORADO SPRINGS,01/14/2014 18:22:00,,4834.00,2713.00,727.00,368.00,239.00,276.00,186.00,69.00,APPROVED
CO: COLORADO SPRINGS,01/14/2014 19:23:00,,4805.00,2688.00,726.00,373.00,238.00,278.00,185.00,69.00,APPROVED
CO: COLORADO SPRINGS,01/14/2014 20:23:00,,4759.00,2660.00,724.00,367.00,241.00,268.00,186.00,68.00,APPROVED
CO: COLORADO SPRINGS,01/14/2014 21:23:00,,4738.00,2668.00,721.00,368.00,237.00,275.00,187.00,69.00,APPROVED
CO: COLORADO SPRINGS,01/14/2014 22:23:00,,4705.00,2735.00,734.00,381.00,240.00,297.00,200.00,70.00,APPROVED
CO: COLORADO SPRINGS,01/14/2014 23:23:00,,4651.00,2761.00,750.00,388.00,237.00,306.00,203.00,71.00,APPROVED
CO: COLORADO SPRINGS,01/15/2014 00:24:00,,4741.00,2804.00,756.00,391.00,239.00,308.00,203.00,73.00,APPROVED
CO: COLORADO SPRINGS,01/15/2014 01:24:00,,4815.00,2846.00,757.00,396.00,242.00,314.00,206.00,73.00,APPROVED
CO: COLORADO SPRINGS,01/15/2014 02:24:00,,4862.00,2871.00,771.00,395.00,242.00,316.00,204.00,72.00,APPROVED
CO: COLORADO SPRINGS,01/15/2014 03:24:00,,4920.00,2887.00,774.00,397.00,244.00,320.00,205.00,74.00,APPROVED
CO: COLORADO SPRINGS,01/15/2014 04:24:00,,4981.00,2938.00,783.00,404.00,248.00,316.00,205.00,75.00,APPROVED
CO: COLORADO SPRINGS,01/15/2014 05:25:00,,5054.00,2981.00,780.00,409.00,244.00,314.00,206.00,74.00,APPROVED
CO: COLORADO SPRINGS,01/15/2014 06:25:00,,5099.00,3005.00,791.00,414.00,247.00,318.00,202.00,75.00,APPROVED
CO: COLORADO SPRINGS,01/15/2014 07:25:00,,5140.00,3027.00,793.00,421.00,246.00,316.00,211.00,76.00,APPROVED
CO: COLORADO SPRINGS,01/15/2014 08:25:00,,5160.00,3040.00,803.00,421.00,249.00,317.00,209.00,76.00,APPROVED
CO: COLORADO SPRINGS,01/15/2014 09:25:00,,5160.00,3046.00,790.00,415.00,251.00,321.00,205.00,77.00,APPROVED
CO: COLORADO SPRINGS,01/15/2014 10:26:00,,5197.00,3037.00,794.00,417.00,247.00,317.00,206.00,76.00,APPROVED
CO: COLORADO SPRINGS,01/15/2014 11:26:00,,5207.00,3050.00,796.00,419.00,253.00,321.00,207.00,76.00,APPROVED
CO: COLORADO SPRINGS,01/15/2014 12:26:00,,5197.00,3049.00,799.00,417.00,254.00,317.00,208.00,76.00,APPROVED
CO: COLORADO SPRINGS,01/15/2014 13:26:00,,5216.00,3042.00,799.00,419.00,251.00,317.00,203.00,77.00,APPROVED
CO: COLORADO SPRINGS,01/15/2014 14:26:00,,5186.00,3045.00,799.00,420.00,252.00,321.00,207.00,77.00,APPROVED
CO: COLORADO SPRINGS,01/15/2014 15:27:00,,5124.00,3014.00,798.00,413.00,252.00,322.00,208.00,76.00,APPROVED
CO: COLORADO SPRINGS,01/15/2014 16:27:00,,5040.00,2982.00,786.00,415.00,245.00,318.00,208.00,74.00,APPROVED
CO: COLORADO SPRINGS,01/15/2014 17:27:00,,4749.00,2838.00,768.00,400.00,240.00,316.00,206.00,75.00,APPROVED
CO: COLORADO SPRINGS,01/15/2014 18:27:00,,4433.00,2707.00,744.00,392.00,237.00,317.00,205.00,75.00,APPROVED
CO: COLORADO SPRINGS,01/15/2014 19:27:00,,4287.00,2620.00,742.00,386.00,239.00,315.00,207.00,75.00,APPROVED
CO: COLORADO SPRINGS,01/16/2014 00:19:00,,4155.00,2149.00,650.00,317.00,225.00,317.00,95.00,93.00,APPROVED
CO: COLORADO SPRINGS,01/16/2014 01:19:00,,4155.00,2146.00,654.00,314.00,227.00,315.00,93.00,95.00,APPROVED
CO: COLORADO SPRINGS,01/16/2014 02:20:00,,4164.00,2142.00,650.00,316.00,227.00,314.00,93.00,94.00,APPROVED
CO: COLORADO SPRINGS,01/16/2014 03:20:00,,4238.00,2196.00,650.00,320.00,224.00,321.00,96.00,92.00,APPROVED
CO: COLORADO SPRINGS,01/16/2014 04:20:00,,4293.00,2229.00,658.00,314.00,225.00,319.00,98.00,91.00,APPROVED